Date String (YYYY-MM-DD hh:mm:ss) UTC,Instrument flags,Ambient pressure (hPa),Sample flow (lpm),Bypass flow (lpm),Sample temperature (°C),Ambient temperature (°C),ASC tube jacket temperature (°C),LED temperature (°C),Box temperature (°C),Sample RH (%),Span deviation,Mass concentration (μg/m³),Mass concentration (μg/m³),Mass concentration (μg/m³)
DateTimeUTC,F1_M11,P_M11,Q1_M11,Q2_M11,T1_M11,T2_M11,T3_M11,T4_M11,T5_M11,U1_M11,ZSPAN_M11,X2_M11,X0_M11,X1_M11
2022-05-27 09:00:00,,0826.0,5.01,0.00,30.1,29.0,00.0,39.1,31.9,11.2,0000.0,0002.48,0006.62,0001.68
2022-05-27 09:01:00,,0826.0,5.00,0.00,30.1,29.0,00.0,39.1,31.9,11.4,0000.0,0002.52,0007.71,0001.68
2022-05-27 09:02:00,,0826.0,4.99,0.00,30.1,29.0,00.0,39.1,31.9,11.6,0000.0,0002.55,0008.86,0001.67
2022-05-27 09:03:00,,0825.9,5.01,0.00,30.1,29.0,00.0,39.1,31.9,11.4,0000.0,0002.51,0009.32,0001.67
2022-05-27 09:04:00,,0825.9,5.01,0.00,30.1,29.0,00.0,39.1,31.9,11.4,0000.0,0002.52,0009.55,0001.68
2022-05-27 09:05:00,,0825.9,5.02,0.00,30.1,29.0,00.0,39.1,31.9,11.5,0000.0,0002.49,0009.38,0001.69
2022-05-27 09:06:00,,0825.9,5.00,0.00,30.1,29.0,00.0,39.1,31.9,11.6,0000.0,0002.48,0008.64,0001.69
2022-05-27 09:07:00,,0826.0,4.99,0.00,30.1,29.0,00.0,39.1,31.9,11.7,0000.0,0002.44,0008.32,0001.69
2022-05-27 09:08:00,,0825.9,5.01,0.00,30.1,29.0,00.0,39.1,31.9,11.7,0000.0,0002.45,0008.34,0001.68
2022-05-27 09:09:00,,0826.0,5.00,0.00,30.1,29.1,00.0,39.1,31.9,11.5,0000.0,0002.47,0008.33,0001.69
2022-05-27 09:10:00,,0825.9,4.98,0.00,30.1,29.1,00.0,39.1,31.9,11.5,0000.0,0002.47,0008.33,0001.69
2022-05-27 09:11:00,,0825.9,5.01,0.00,30.1,29.1,00.0,39.1,31.9,11.5,0000.0,0002.45,0008.98,0001.70
2022-05-27 09:12:00,,0825.9,5.01,0.00,30.1,29.0,00.0,39.0,31.9,11.5,0000.0,0002.42,0008.50,0001.70
2022-05-27 09:13:00,,0825.8,5.00,0.00,30.1,29.0,00.0,39.0,31.9,11.6,0000.0,0002.34,0007.36,0001.68
2022-05-27 09:14:00,,0825.8,4.99,0.00,30.1,29.0,00.0,39.0,31.8,11.5,0000.0,0002.27,0006.32,0001.68
2022-05-27 09:15:00,,0825.8,5.00,0.00,30.0,29.0,00.0,39.0,31.8,11.5,0000.0,0002.25,0005.84,0001.68
2022-05-27 09:16:00,,0825.9,4.99,0.00,30.0,29.0,00.0,39.0,31.7,11.5,0000.0,0002.29,0005.84,0001.68
2022-05-27 09:17:00,,0825.9,5.01,0.00,30.0,29.0,00.0,39.0,31.7,11.4,0000.0,0002.33,0006.08,0001.66
2022-05-27 09:18:00,,0825.9,5.00,0.00,30.0,29.0,00.0,39.0,31.7,11.2,0000.0,0002.36,0006.28,0001.65
2022-05-27 09:19:00,,0825.9,5.00,0.00,30.0,29.0,00.0,39.0,31.8,11.3,0000.0,0002.32,0006.68,0001.65
2022-05-27 09:20:00,,0825.9,5.01,0.00,30.0,29.0,00.0,39.0,31.8,11.1,0000.0,0002.28,0007.12,0001.64
2022-05-27 09:21:00,,0825.9,5.01,0.00,30.0,29.0,00.0,39.0,31.8,11.0,0000.0,0002.30,0007.31,0001.66
2022-05-27 09:22:00,,0825.9,5.02,0.00,30.0,29.0,00.0,39.0,31.8,11.0,0000.0,0002.32,0006.91,0001.67
2022-05-27 09:23:00,,0825.8,4.99,0.00,30.1,29.0,00.0,39.0,31.9,10.9,0000.0,0002.37,0007.17,0001.69
2022-05-27 09:24:00,,0825.8,5.00,0.00,30.1,29.0,00.0,39.0,31.9,10.9,0000.0,0002.42,0007.74,0001.71
2022-05-27 09:25:00,,0825.8,5.00,0.00,30.1,29.0,00.0,39.0,31.9,10.8,0000.0,0002.49,0007.78,0001.73
2022-05-27 09:26:00,,0825.7,5.01,0.00,30.1,29.0,00.0,39.0,31.9,10.8,0000.0,0002.52,0007.87,0001.73
2022-05-27 09:27:00,,0825.7,5.00,0.00,30.1,29.1,00.0,39.0,31.9,10.8,0000.0,0002.50,0007.88,0001.75
2022-05-27 09:28:00,,0825.7,4.98,0.00,30.1,29.1,00.0,39.0,31.9,10.8,0000.0,0002.51,0008.00,0001.77
2022-05-27 09:29:00,,0825.8,5.00,0.00,30.1,29.1,00.0,39.0,31.9,10.9,0000.0,0002.49,0008.05,0001.79
2022-05-27 09:30:00,,0825.8,5.01,0.00,30.1,29.1,00.0,39.0,31.9,11.0,0000.0,0002.54,0008.03,0001.81
2022-05-27 09:31:00,,0825.8,5.00,0.00,30.1,29.1,00.0,39.0,31.9,11.2,0000.0,0002.58,0007.88,0001.82
2022-05-27 09:32:00,,0825.8,4.99,0.00,30.1,29.1,00.0,39.0,31.9,11.1,0000.0,0002.60,0007.86,0001.81
2022-05-27 09:33:00,,0825.8,5.01,0.00,30.1,29.1,00.0,39.0,31.9,11.1,0000.0,0002.64,0007.45,0001.81
2022-05-27 09:34:00,,0825.8,5.01,0.00,30.1,29.1,00.0,39.0,32.0,11.1,0000.0,0002.63,0006.70,0001.79
2022-05-27 09:35:00,,0825.8,4.99,0.00,30.1,29.1,00.0,39.0,32.0,11.1,0000.0,0002.67,0006.27,0001.79
2022-05-27 09:36:00,,0825.8,4.99,0.00,30.1,29.1,00.0,39.1,32.0,11.1,0000.0,0002.68,0006.28,0001.81
2022-05-27 09:37:00,,0825.9,5.01,0.00,30.2,29.1,00.0,39.1,32.0,11.0,0000.0,0002.66,0006.15,0001.81
2022-05-27 09:38:00,,0825.8,5.00,0.00,30.2,29.1,00.0,39.1,32.0,10.9,0000.0,0002.66,0006.07,0001.80
2022-05-27 09:39:00,,0825.8,5.00,0.00,30.2,29.1,00.0,39.1,32.0,10.9,0000.0,0002.59,0005.51,0001.79
2022-05-27 09:40:00,,0825.8,5.00,0.00,30.2,29.1,00.0,39.1,32.0,11.1,0000.0,0002.57,0005.19,0001.78
2022-05-27 09:41:00,,0825.8,4.99,0.00,30.2,29.1,00.0,39.1,32.0,11.3,0000.0,0002.53,0004.64,0001.79
2022-05-27 09:42:00,,0825.8,5.02,0.00,30.2,29.1,00.0,39.1,32.0,10.9,0000.0,0002.57,0004.64,0001.80
2022-05-27 09:43:00,,0825.8,4.98,0.00,30.2,29.1,00.0,39.1,32.0,11.3,0000.0,0002.54,0004.42,0001.79
2022-05-27 09:44:00,,0825.7,5.02,0.00,30.2,29.1,00.0,39.1,32.0,11.4,0000.0,0002.54,0004.64,0001.80
2022-05-27 09:45:00,,0825.7,4.99,0.00,30.2,29.0,00.0,39.1,32.0,11.2,0000.0,0002.49,0005.05,0001.80
2022-05-27 09:46:00,,0825.6,4.99,0.00,30.2,29.0,00.0,39.1,32.0,10.9,0000.0,0002.45,0005.00,0001.79
2022-05-27 09:47:00,,0825.6,5.00,0.00,30.2,29.0,00.0,39.1,32.0,11.1,0000.0,0002.48,0005.11,0001.77
2022-05-27 09:48:00,,0825.7,5.01,0.00,30.2,29.0,00.0,39.1,32.0,11.0,0000.0,0002.50,0005.44,0001.76
2022-05-27 09:49:00,,0825.6,5.00,0.00,30.2,29.0,00.0,39.1,32.0,11.0,0000.0,0002.52,0005.86,0001.76
2022-05-27 09:50:00,,0825.7,5.00,0.00,30.2,29.0,00.0,39.1,32.0,10.9,0000.0,0002.53,0006.13,0001.75
2022-05-27 09:51:00,,0825.6,5.02,0.00,30.2,29.0,00.0,39.1,32.0,11.0,0000.0,0002.56,0006.26,0001.74
2022-05-27 09:52:00,,0825.6,4.99,0.00,30.2,29.0,00.0,39.1,32.0,11.2,0000.0,0002.58,0006.39,0001.72
2022-05-27 09:53:00,,0825.6,4.99,0.00,30.2,29.0,00.0,39.1,31.9,10.9,0000.0,0002.50,0006.32,0001.69
2022-05-27 09:54:00,,0825.6,4.99,0.00,30.2,29.0,00.0,39.1,32.0,11.1,0000.0,0002.55,0006.51,0001.67
2022-05-27 09:55:00,,0825.6,5.00,0.00,30.2,29.0,00.0,39.1,31.9,11.4,0000.0,0002.48,0006.02,0001.65
2022-05-27 09:56:00,,0825.6,5.01,0.00,30.2,29.0,00.0,39.1,31.9,11.2,0000.0,0002.50,0005.55,0001.63
2022-05-27 09:57:00,,0825.5,5.00,0.00,30.2,29.0,00.0,39.1,31.9,11.0,0000.0,0002.51,0005.23,0001.62
2022-05-27 09:58:00,,0825.6,5.01,0.00,30.2,29.0,00.0,39.1,31.9,10.9,0000.0,0002.47,0005.33,0001.60
2022-05-27 09:59:00,,0825.6,4.99,0.00,30.1,29.0,00.0,39.1,32.0,10.9,0000.0,0002.42,0005.01,0001.59
